Starlink 35580

operational
NORAD ID: 66155 Int'l Des: 2025-240 Owner: SPXS Country: US Constellation: starlink
LEOCIRCULAR

关于 Starlink 35580

正在加载描述...

实时位置

正在加载3D地球...

即将过境

高度历史

Altitude vs Time

uPlot chart will show altitude changes over time

两行轨道根数

1 66155U 25240K 25352.65662307 .00018800 00000-0 64529-3 0 9994
2 66155 53.1599 79.0776 0001028 106.1108 254.0006 15.30199392 9582
Epoch: Dec 18, 2025 • Age: 16 hours

当前状态

高度 480.8 km
速度 7.63 km/s
星下点 52.11°N, 55.71°W
发射日期 Oct 25, 2025
运行时间 0.1 years
类型 internet

技术详情

分类 Payload
质量 575.00 kg
干质量 530.00 kg
总质量 575.00 kg
长度 0.30 m
直径 4.10 m
跨度 29.00 m
形状 Box + pan
制造商 SPXS
平台类型 Starlink V2MO
阶段状态 In Orbit
所有者/国家 SPXS/US

大型星座

Loading constellations...